Location: Street
(51.1247°N, 2.7429°W)
Time: 08:55:35
(UTC+01:00)

PCSat - Pass Details

Date: 30 March 2023
Orbit: 783 x 794 km, 67.1° (Epoch: 29 May)

Event Time Altitude Azimuth Distance (km) Brightness Sun altitude
Rises 23:54:55 0° 322° (NW) 3,301 13.8 -32.6°
Reaches altitude 10° 23:57:34 10° 332° (NNW) 2,370 12.9 -32.8°
Enters shadow 00:02:00 33° 26° (NNE) 1,311 10.9 -33.1°
